Weather History for Mosby, MO

Change the Weather History Date:

Tuesday, June 10, 2014

  Actual Average (KMKC) Record (KMKC)
Temperature  
Mean Temperature 62 °F -  
Max Temperature 64 °F 79 °F 93 °F (2012)
Min Temperature 59 °F 62 °F 59 °F (1997)
Degree Days  
Heating Degree Days 4    
Growing Degree Days 12 (Base 50)    
Moisture  
Dew Point 60 °F    
Average Humidity 93    
Maximum Humidity 100    
Minimum Humidity 88    
Precipitation  
Precipitation 0.00 in - - ()
Sea Level Pressure  
Sea Level Pressure 29.79 in    
Wind  
Wind Speed 10 mph (NNE)    
Max Wind Speed 17 mph    
Max Gust Speed 26 mph    
Visibility 8 miles    
Events Rain    
Averages and records for this station are not official NWS values.
T = Trace of Precipitation, MM = Missing Value Source: NWS Daily Summary

Daily Weather History Graph

Daily Weather History Graph

Search for Another Location

Airport:

Trip Planner

Search our weather history database for the weather conditions in past years. The results will help you decide how hot, cold, wet, or windy it might be!

Date:

Astronomy

Jun. 10, 2014 Rise Set
Actual Time 5:50 AM CDT 8:43 PM CDT
Civil Twilight 5:17 AM CDT 9:15 PM CDT
Nautical Twilight 4:37 AM CDT 9:56 PM CDT
Astronomical Twilight 3:50 AM CDT 10:43 PM CDT
Moon 6:10 PM CDT (6/10) 3:55 AM CDT (6/10)
Length of Visible Light 15h 57m
Length of Day
14h 53m
Waxing Gibbous, 92% of the Moon is Illuminated
Jun 10
Waxing Gibbous
Jun 12
Full
Jun 19
Last Quarter
Jun 27
New
Jul 5
First Quarter

Hourly Weather History & Observations

Time (CDT) Temp. Dew Point Humidity Pressure Visibility Wind Dir Wind Speed Gust Speed Precip Events Conditions
12:15 AM 62.6 °F 60.8 °F 94% 29.79 in 10.0 mi ENE 5.8 mph - N/A   Overcast
12:35 AM 62.6 °F 60.8 °F 94% 29.79 in 10.0 mi ENE 9.2 mph - N/A   Overcast
12:55 AM 62.6 °F 59.0 °F 88% 29.79 in 10.0 mi East 8.1 mph - N/A   Overcast
1:15 AM 62.6 °F 59.0 °F 88% 29.79 in 10.0 mi ENE 9.2 mph - N/A   Overcast
1:35 AM 62.6 °F 59.0 °F 88% 29.78 in 10.0 mi NE 5.8 mph - N/A   Light Drizzle
1:55 AM 62.6 °F 59.0 °F 88% 29.77 in 10.0 mi NE 9.2 mph - N/A Rain Rain
2:15 AM 62.6 °F 59.0 °F 88% 29.77 in 10.0 mi NNE 8.1 mph - N/A   Light Drizzle
2:35 AM 62.6 °F 59.0 °F 88% 29.76 in 10.0 mi NNE 6.9 mph - N/A Rain Light Rain
2:55 AM 62.6 °F 59.0 °F 88% 29.76 in 10.0 mi NNE 6.9 mph - N/A   Light Drizzle
3:15 AM 62.6 °F 59.0 °F 88% 29.75 in 10.0 mi NNE 8.1 mph 17.3 mph N/A Rain Light Rain
3:35 AM 60.8 °F 59.0 °F 94% 29.75 in 7.0 mi NNE 6.9 mph - N/A Rain Rain
3:55 AM 60.8 °F 60.8 °F 100% 29.75 in 7.0 mi North 6.9 mph - N/A Rain Rain
4:15 AM 62.6 °F 60.8 °F 94% 29.74 in 10.0 mi North 10.4 mph - N/A Rain Light Rain
4:35 AM 62.6 °F 60.8 °F 94% 29.74 in 10.0 mi North 12.7 mph - N/A Rain Light Rain
4:55 AM 62.6 °F 60.8 °F 94% 29.74 in 10.0 mi North 10.4 mph - N/A   Overcast
5:15 AM 62.6 °F 60.8 °F 94% 29.74 in 10.0 mi NNE 10.4 mph - N/A   Light Drizzle
5:35 AM 62.6 °F 60.8 °F 94% 29.74 in 10.0 mi North 10.4 mph 16.1 mph N/A Rain Light Rain
6:15 AM 62.6 °F 59.0 °F 88% 29.76 in 7.0 mi NE 15.0 mph 25.3 mph N/A Rain Rain
6:35 AM 60.8 °F 59.0 °F 94% 29.77 in 5.0 mi NNE 9.2 mph - N/A Rain Rain
6:55 AM 60.8 °F 59.0 °F 94% 29.77 in 5.0 mi NNE 13.8 mph 23.0 mph N/A Rain Light Rain
7:15 AM 59.0 °F 57.2 °F 94% 29.77 in 5.0 mi NNE 13.8 mph 24.2 mph N/A Rain Rain
7:35 AM 59.0 °F 57.2 °F 94% 29.78 in 5.0 mi NNE 15.0 mph 26.5 mph N/A Rain Rain
7:55 AM 59.0 °F 57.2 °F 94% 29.78 in 7.0 mi NNE 15.0 mph 21.9 mph N/A Rain Rain
8:15 AM 59.0 °F 59.0 °F 100% 29.78 in 7.0 mi North 15.0 mph 20.7 mph N/A Rain Light Rain
8:35 AM 59.0 °F 59.0 °F 100% 29.78 in 3.0 mi NNE 15.0 mph 23.0 mph N/A Rain Heavy Rain
8:55 AM 59.0 °F 59.0 °F 100% 29.79 in 7.0 mi North 13.8 mph 19.6 mph N/A Rain Rain
9:15 AM 59.0 °F 59.0 °F 100% 29.79 in 4.0 mi NNE 13.8 mph 20.7 mph N/A Rain Rain
9:35 AM 59.0 °F 59.0 °F 100% 29.80 in 5.0 mi North 11.5 mph 18.4 mph N/A Rain Light Rain
9:55 AM 60.8 °F 59.0 °F 94% 29.80 in 7.0 mi North 12.7 mph 18.4 mph N/A Rain Light Rain
10:15 AM 60.8 °F 59.0 °F 94% 29.80 in 7.0 mi North 10.4 mph 17.3 mph N/A Rain Light Rain
10:35 AM 60.8 °F 59.0 °F 94% 29.80 in 10.0 mi NNE 8.1 mph 17.3 mph N/A   Light Drizzle
10:55 AM 60.8 °F 59.0 °F 94% 29.81 in 7.0 mi NNE 11.5 mph - N/A Rain Light Rain
11:15 AM 60.8 °F 59.0 °F 94% 29.81 in 7.0 mi NNE 10.4 mph - N/A Rain Rain
11:35 AM 60.8 °F 60.8 °F 100% 29.81 in 10.0 mi North 9.2 mph 16.1 mph N/A Rain Light Rain
11:55 AM 60.8 °F 60.8 °F 100% 29.81 in 10.0 mi NNE 10.4 mph - N/A   Light Drizzle
12:15 PM 62.6 °F 60.8 °F 94% 29.81 in 10.0 mi North 9.2 mph 16.1 mph N/A   Light Drizzle
12:35 PM 62.6 °F 60.8 °F 94% 29.81 in 10.0 mi North 10.4 mph - N/A Rain Light Rain
12:55 PM 62.6 °F 60.8 °F 94% 29.81 in 10.0 mi North 10.4 mph - N/A   Light Drizzle
1:15 PM 64.4 °F 60.8 °F 88% 29.81 in 10.0 mi North 9.2 mph - N/A   Overcast
1:35 PM 64.4 °F 60.8 °F 88% 29.80 in 10.0 mi North 12.7 mph - N/A   Overcast
1:55 PM 64.4 °F 60.8 °F 88% 29.80 in 10.0 mi North 10.4 mph - N/A   Overcast
2:35 PM 64.4 °F 60.8 °F 88% 29.80 in 10.0 mi North 12.7 mph - N/A   Overcast
3:15 PM 64.4 °F 60.8 °F 88% 29.80 in 10.0 mi North 13.8 mph - N/A   Drizzle
3:35 PM 64.4 °F 60.8 °F 88% 29.80 in 10.0 mi NNE 11.5 mph 23.0 mph N/A   Overcast
3:55 PM 64.4 °F 60.8 °F 88% 29.79 in 10.0 mi North 16.1 mph 21.9 mph N/A   Overcast
4:15 PM 64.4 °F 60.8 °F 88% 29.79 in 10.0 mi NNE 13.8 mph 19.6 mph N/A   Overcast
4:35 PM 64.4 °F 60.8 °F 88% 29.79 in 10.0 mi North 17.3 mph 21.9 mph N/A   Overcast
5:15 PM 62.6 °F 60.8 °F 94% 29.79 in 10.0 mi North 12.7 mph - N/A   Overcast
5:35 PM 62.6 °F 60.8 °F 94% 29.79 in 10.0 mi North 10.4 mph - N/A   Overcast
5:55 PM 64.4 °F 60.8 °F 88% 29.79 in 10.0 mi North 9.2 mph - N/A   Overcast
6:15 PM 64.4 °F 60.8 °F 88% 29.79 in 7.0 mi North 8.1 mph 17.3 mph N/A   Overcast
6:35 PM 62.6 °F 62.6 °F 100% 29.79 in 7.0 mi North 10.4 mph - N/A   Unknown
6:55 PM 62.6 °F 62.6 °F 100% 29.79 in 7.0 mi North 9.2 mph - N/A   Overcast
7:15 PM 62.6 °F 60.8 °F 94% 29.80 in 7.0 mi North 10.4 mph 18.4 mph N/A   Overcast
7:35 PM 62.6 °F 60.8 °F 94% 29.80 in 10.0 mi North 10.4 mph 18.4 mph N/A   Overcast
7:55 PM 62.6 °F 60.8 °F 94% 29.81 in 5.0 mi NNW 10.4 mph - N/A   Overcast
8:15 PM 62.6 °F 60.8 °F 94% 29.80 in 5.0 mi NNW 8.1 mph - N/A   Drizzle
8:35 PM 62.6 °F 62.6 °F 100% 29.80 in 7.0 mi North 6.9 mph - N/A   Overcast
8:55 PM 62.6 °F 62.6 °F 100% 29.80 in 7.0 mi NNW 10.4 mph - N/A   Overcast
9:15 PM 62.6 °F 60.8 °F 94% 29.81 in 7.0 mi North 9.2 mph - N/A   Overcast
9:35 PM 62.6 °F 60.8 °F 94% 29.81 in 10.0 mi North 10.4 mph - N/A   Overcast
9:55 PM 62.6 °F 60.8 °F 94% 29.82 in 10.0 mi North 9.2 mph - N/A   Overcast
10:15 PM 62.6 °F 60.8 °F 94% 29.82 in 10.0 mi North 8.1 mph - N/A   Overcast
10:35 PM 62.6 °F 60.8 °F 94% 29.81 in 10.0 mi North 5.8 mph - N/A   Overcast
11:15 PM 62.6 °F 60.8 °F 94% 29.82 in 10.0 mi North 8.1 mph - N/A   Scattered Clouds
11:35 PM 60.8 °F 60.8 °F 100% 29.81 in 10.0 mi North 6.9 mph - N/A   Mostly Cloudy
11:55 PM 60.8 °F 59.0 °F 94% 29.81 in 10.0 mi North 4.6 mph - N/A   Scattered Clouds